This demonstration page uses our WeatherBlox Daily Observations layout. Learn more.

40.92945, -100.16068

Hourly Observations for May 6, 2018

Temp ( °F °C ) Dew Point ( °F °C ) Humidity (%) Winds ( mph kmh ) Pressure ( in mb ) Visibility ( mi km ) Precip ( " mm )
12:15 am 00:15 Clear 54 12.3 43 6.2 67 67 WNW 5 7 30.06 1018 10 16.0934 0 0
12:35 am 00:35 Clear 53 11.8 43 6.3 69 69 WNW 5 7 30.06 1018 10 16.0934 0 0
12:55 am 00:55 Clear 53 11.5 43 6 69 69 WNW 5 7 30.06 1018 10 16.0934 0 0
1:15 am 01:15 Clear 53 11.4 43 6.2 71 71 NW 5 7 30.06 1018 10 16.0934 0 0
1:35 am 01:35 Clear 51 10.5 42 5.6 72 72 Calm 30.09 1019 10 16.0934 0 0
1:55 am 01:55 Clear 51 10.3 42 5.8 74 74 WNW 6 9 30.12 1020 10 16.0934 0 0
2:15 am 02:15 Partly Cloudy 50 10.2 43 6.3 77 77 NW 7 11 30.12 1020 10 16.0934 0 0
2:35 am 02:35 Partly Cloudy 52 11 43 6.3 73 73 WNW 3 6 30.09 1019 10 16.0934 0 0
2:55 am 02:55 Partly Cloudy 53 11.6 43 6.1 69 69 Calm 30.09 1019 10 16.0934 0 0
3:15 am 03:15 Mostly Cloudy 53 11.4 43 6.1 70 70 Calm 30.09 1019 10 16.0934 0 0
3:35 am 03:35 Partly Cloudy 51 10.6 43 5.9 73 73 NW 7 11 30.12 1020 10 16.0934 0 0
3:55 am 03:55 Clear 50 9.9 42 5.8 76 76 WNW 9 15 30.12 1020 10 16.0934 0 0
4:15 am 04:15 Clear 50 9.8 43 6 77 77 Calm 30.12 1020 10 16.0934 0 0
4:35 am 04:35 Clear 49 9.5 41 5.1 74 74 WNW 7 11 30.12 1020 10 16.0934 0 0
4:55 am 04:55 Clear 49 9.5 41 5.1 74 74 W 6 9 30.12 1020 10 16.0934 0 0
5:15 am 05:15 Clear 49 9.2 42 5.6 78 78 NW 6 9 30.12 1020 10 16.0934 0 0
5:35 am 05:35 Clear 47 8.5 42 5.5 82 82 WNW 8 13 30.12 1020 10 16.0934 0 0
5:55 am 05:55 Clear 48 8.7 42 5.5 81 81 W 7 11 30.12 1020 10 16.0934 0 0
6:15 am 06:15 Clear 47 8.2 41 5.2 82 82 WNW 8 13 30.12 1020 10 16.0934 0 0
6:35 am 06:35 Sunny 47 8.3 42 5.3 82 82 WNW 7 11 30.15 1021 10 16.0934 0 0
6:55 am 06:55 Sunny 47 8.2 42 5.5 83 83 NW 8 13 30.15 1021 10 16.0934 0 0
7:15 am 07:15 Sunny 47 8.5 42 5.6 82 82 WNW 6 9 30.15 1021 10 16.0934 0 0
7:35 am 07:35 Sunny 48 9.1 43 6.1 82 82 W 8 13 30.15 1021 10 16.0934 0 0
7:55 am 07:55 Sunny 51 10.8 44 6.7 76 76 WNW 6 9 30.18 1022 10 16.0934 0 0
8:15 am 08:15 Sunny 54 12.2 46 7.5 73 73 W 5 7 30.15 1021 10 16.0934 0 0
8:35 am 08:35 Sunny 58 14.7 47 8.2 65 65 W 6 9 30.12 1020 10 16.0934 0 0
8:55 am 08:55 Sunny 62 16.6 48 9.1 61 61 WNW 5 7 30.12 1020 10 16.0934 0 0
9:15 am 09:15 Sunny 66 18.7 48 8.8 53 53 NNW 7 11 30.09 1019 10 16.0934 0 0
9:35 am 09:35 Sunny 67 19.7 48 9 50 50 NNW 7 11 30.09 1019 10 16.0934 0 0
9:55 am 09:55 Sunny 72 22 47 8.2 41 41 NNW 9 15 30.06 1018 10 16.0934 0 0
10:15 am 10:15 Sunny 73 22.8 45 7.3 37 37 N 7 11 30.06 1018 10 16.0934 0 0
10:35 am 10:35 Sunny 74 23.4 44 6.5 34 34 NNE 8 13 30.06 1018 10 16.0934 0 0
10:55 am 10:55 Sunny 76 24.2 44 6.4 32 32 NE 12 19 30.06 1018 10 16.0934 0 0
11:15 am 11:15 Sunny 76 24.6 42 5.5 29 29 NNE 12 19 30.06 1018 10 16.0934 0 0
11:35 am 11:35 Sunny 77 25.1 42 5.7 29 29 NE 15 24 30.03 1017 10 16.0934 0 0
11:55 am 11:55 Sunny 78 25.5 43 5.9 28 28 NNE 10 17 30.03 1017 10 16.0934 0 0
12:15 pm 12:15 Sunny 77 24.9 44 6.5 31 31 NE 12 19 30.03 1017 10 16.0934 0 0
12:35 pm 12:35 Sunny 79 25.9 44 6.5 29 29 NE 12 19 30.03 1017 10 16.0934 0 0
12:55 pm 12:55 Sunny 79 26.3 43 6.3 28 28 ENE 13 20 30.03 1017 10 16.0934 0 0
1:15 pm 13:15 Sunny 79 26 43 6.3 28 28 ENE 13 20 30.03 1017 10 16.0934 0 0
1:35 pm 13:35 Sunny 77 25.2 43 6.1 29 29 NE 14 22 30.03 1017 10 16.0934 0 0
1:55 pm 13:55 Sunny 78 25.6 45 7 31 31 NE 12 19 30.03 1017 10 16.0934 0 0
2:15 pm 14:15 Sunny 78 25.6 44 6.9 30 30 ENE 12 19 30.03 1017 10 16.0934 0 0
2:35 pm 14:35 Sunny 79 26.1 44 6.8 29 29 NE 14 22 30.03 1017 10 16.0934 0 0
2:55 pm 14:55 Sunny 79 25.9 44 6.9 30 30 NE 12 19 30.03 1017 10 16.0934 0 0
3:15 pm 15:15 Sunny 78 25.8 45 7 30 30 NE 9 15 30.03 1017 10 16.0934 0 0
3:35 pm 15:35 Partly Cloudy 77 25 44 6.4 30 30 NE 13 20 30.03 1017 10 16.0934 0 0
3:55 pm 15:55 Mostly Cloudy 76 24.2 43 5.9 31 31 ENE 13 20 30.06 1018 10 16.0934 0 0
4:15 pm 16:15 Mostly Cloudy 76 24.2 46 7.5 34 34 E 10 17 30.06 1018 10 16.0934 0 0
4:35 pm 16:35 Partly Cloudy 76 24.3 43 6.3 31 31 ENE 10 17 30.06 1018 10 16.0934 0 0
4:55 pm 16:55 Sunny 75 24 45 7.1 34 34 E 10 17 30.06 1018 10 16.0934 0 0
5:15 pm 17:15 Sunny 76 24.2 44 6.5 32 32 NE 10 17 30.06 1018 10 16.0934 0 0
5:35 pm 17:35 Partly Cloudy 75 23.9 43 5.9 31 31 NE 12 19 30.06 1018 10 16.0934 0 0
5:55 pm 17:55 Mostly Cloudy 74 23.4 43 6.3 33 33 NE 9 15 30.06 1018 10 16.0934 0 0
6:15 pm 18:15 Mostly Cloudy 74 23.5 43 6.2 33 33 NE 12 19 30.06 1018 10 16.0934 0 0
6:35 pm 18:35 Partly Cloudy 74 23.4 45 7.3 36 36 NE 10 17 30.06 1018 10 16.0934 0 0
6:55 pm 18:55 Partly Cloudy 73 23 46 7.6 37 37 ENE 9 15 30.06 1018 10 16.0934 0 0
7:15 pm 19:15 Partly Cloudy 72 22 46 7.7 40 40 E 7 11 30.03 1017 10 16.0934 0 0
7:35 pm 19:35 Mostly Cloudy 73 22.6 42 5.8 34 34 ESE 8 13 30.03 1017 10 16.0934 0 0
7:55 pm 19:55 Partly Cloudy 71 21.8 46 7.5 40 40 ESE 5 7 30.03 1017 10 16.0934 0 0
8:15 pm 20:15 Sunny 71 21.8 45 7 39 39 Calm 30.03 1017 10 16.0934 0 0
8:35 pm 20:35 Sunny 71 21.4 44 6.7 39 39 ENE 5 7 30.03 1017 10 16.0934 0 0
8:55 pm 20:55 Clear 68 20.1 43 6.1 40 40 ENE 6 9 30.06 1018 10 16.0934 0 0
9:15 pm 21:15 Clear 67 19.6 42 5.5 40 40 NE 3 6 30.09 1019 10 16.0934 0 0
9:35 pm 21:35 Clear 66 18.7 42 5.8 43 43 NE 5 7 30.09 1019 10 16.0934 0 0
9:55 pm 21:55 Clear 62 16.7 43 6.3 50 50 NNE 5 7 30.12 1020 10 16.0934 0 0
10:15 pm 22:15 Clear 59 14.8 42 5.5 54 54 NE 3 6 30.12 1020 10 16.0934 0 0
10:35 pm 22:35 Clear 57 14 43 6.1 59 59 Calm 30.15 1021 10 16.0934 0 0
10:55 pm 22:55 Clear 56 13.3 42 5.6 60 60 Calm 30.15 1021 10 16.0934 0 0
11:15 pm 23:15 Clear 55 13 44 6.5 65 65 Calm 30.15 1021 10 16.0934 0 0
11:35 pm 23:35 Clear 54 12.4 43 6.2 66 66 Calm 30.15 1021 10 16.0934 0 0
11:55 pm 23:55 Clear 54 12.3 43 6.3 67 67 Calm 30.15 1021 10 16.0934 0 0

Powered by AerisWeather